Location: Lake Arresoe
(56.0000°N, 12.5000°E)
Time: 08:23:19
(UTC+01:00)

CZ-3 Stage 3 - Visible Passes

Search period start: 21 February 2019 00:00
Search period end: 03 March 2019 00:00
Orbit: 446 x 34746 km, 30.4° (Epoch: 19 February)

Date Brightness Start Highest point End Pass type
(mag) Time Alt. Az. Time Alt. Az. Time Alt. Az.
21 Feb 7.0 06:08:13 10° SSW 06:46:12 43° SE 14:56:41 10° SSE visible
22 Feb 7.7 03:04:56 10° E 03:15:03 10° E 03:31:05 10° ENE visible
22 Feb 8.9 13:26:48 10° W 14:55:43 30° W 18:40:04 10° W visible
23 Feb 7.6 09:34:54 10° WSW 11:03:24 55° SSW 17:55:39 10° SW visible
24 Feb 7.0 05:57:59 10° SSW 06:34:07 43° SE 14:44:58 10° SSE visible
25 Feb 7.6 02:54:12 10° E 03:01:50 10° E 03:12:33 10° ENE visible
25 Feb 8.8 13:16:20 10° W 14:43:44 30° W 18:25:26 10° W visible
27 Feb 6.9 05:47:44 10° SSW 06:22:11 42° SE 14:33:10 10° SSE visible
28 Feb 7.5 02:43:44 10° E 02:49:04 10° E 02:55:47 10° E visible
28 Feb 8.8 13:05:51 10° W 14:31:47 30° W 18:10:45 10° W visible
02 Mar 6.9 05:37:29 10° SSW 06:10:25 42° SE 14:21:16 10° SSE visible
